User: anonymous   Login
Location: Unspecified
(0.0000°N, 0.0000°E)
Time: 07:07:43
(UTC+00:00)
Language:

DIAMOND GREEN - Orbit

View from above orbital plane
View from above orbital plane
View from above satellite
View from above satellite

Ground track
Ground track

The orbit data is extracted from the following two-line orbital elements,

1 42785U 17036W   17291.46520345  .00001448  00000-0  68617-4 0  9991
2 42785  97.4372 349.7975 0012085 196.0783 164.0071 15.20863495 17756
Epoch (UTC): 18 October 2017 11:09:53
Eccentricity: 0.0012085
inclination: 97.4372°
perigee height: 495 km
apogee height: 511 km
right ascension of ascending node: 349.7975°
argument of perigee: 196.0783°
revolutions per day: 15.20863495
mean anomaly at epoch: 164.0071°
orbit number at epoch: 1775

The dashed part of the orbit path shows where the satellite is in the earth's shadow,  

DLR